Погода в Маджаре

Узбекистан     40°05′11″N   65°34′26″E
темп.,
°C
ветер,
м/с
пор.,
м/с
влажн.,
%
обл.,
%
осадки,
мм/ч
давл.,
гПа
погр.,
м
27 февраля, сб
сб2723:00−3ююз112193 0.0 1030200
02:00−3ююз1220100 0.0 1029268
05:00−3ююз1122100 0.0 1029207
08:00−3ю3422100 0.0 1029292
11:00+1ююз551492 0.0 1029620
14:00+4ююз66120 0.0 1028840
17:00+4ююз44140 0.0 1027831
20:00+1ю11220 0.0 102922
28 февраля, вс
вс2823:00+1вюв23200 0.0 102822
02:000в44270 0.0 102653
05:00−1в44410 0.0 102551
08:00+1в46390 0.0 102494
11:00+7в45270 0.0 1022350
14:00+11всв11200 0.0 1019987
17:00+12всв211933 0.0 1018918
20:00+8в332970 0.0 101924
1 марта, пн
пн123:00+7вюв333383 0.0 101922
02:00+6в4442100 0.0 101942
05:00+5в444467 0.0 101839
08:00+5в44400 0.0 101956
11:00+14ююв46210 0.0 1018652
14:00+16ююз811200 0.0 10171154
17:00+17юз811190 0.0 10161631
20:00+11з23300 0.0 101922
2 марта, вт
вт223:00+9з123140 0.0 102022
02:00+8сз1238100 0.0 102022
05:00+7с1142100 0.0 102022
08:00+8ссв1141100 0.0 102122
11:00+14ссв1123100 0.0 1021435
14:00+16сз3220100 0.0 10211190
17:00+16сз5422100 0.0 10201278
20:00+12ссз5831100 0.0 1021204
3 марта, ср
ср323:00+10сз1239100 0.0 102222
02:00+7зсз224248 0.0 102122
05:00+7зсз234371 0.0 102125
08:00+7зсз224487 0.0 102149
11:00+11сз123393 0.0 1021753
14:00+14зюз443197 0.0 10191691
17:00+13зюз443265 0.0 10181292
20:00+10з124333 0.0 101823